• In India
  • List of Countries
  • For 7 days
  • Water Temperature
  • Satellite Maps
  • Weather Map
  • Weather Widgets
  • user-avatar
    Login

    Hourly Weather Zaliznyans'ke

    Today, 18 September, Tuesday

    Time Temperature Precipitation Wind Pressure Humidity
    00:00 +12°C° 0 mm 3 mps 753 mmHg 55%
    01:00 +13°C° 0 mm 2 mps 753 mmHg 57%
    02:00 +13°C° 0 mm 2 mps 753 mmHg 60%
    03:00 +12°C° 0 mm 2 mps 753 mmHg 63%
    04:00 +12°C° 0 mm 2 mps 753 mmHg 65%
    05:00 +12°C° 0 mm 2 mps 753 mmHg 67%
    06:00 +10°C° 0 mm 2 mps 753 mmHg 69%
    07:00 +13°C° 0 mm 2 mps 753 mmHg 64%
    08:00 +14°C° 0 mm 3 mps 753 mmHg 58%
    09:00 +17°C° 0 mm 3 mps 754 mmHg 51%
    10:00 +18°C° 0 mm 4 mps 754 mmHg 47%
    11:00 +20°C° 0 mm 4 mps 754 mmHg 43%
    12:00 +21°C° 0 mm 4 mps 753 mmHg 39%
    13:00 +22°C° 0 mm 5 mps 753 mmHg 37%
    14:00 +22°C° 0 mm 5 mps 753 mmHg 36%
    15:00 +23°C° 0 mm 5 mps 753 mmHg 35%
    16:00 +22°C° 0 mm 4 mps 752 mmHg 37%
    17:00 +22°C° 0 mm 4 mps 752 mmHg 39%
    18:00 +21°C° 0 mm 3 mps 752 mmHg 41%
    19:00 +20°C° 0 mm 3 mps 752 mmHg 44%
    20:00 +19°C° 0 mm 3 mps 752 mmHg 48%
    21:00 +18°C° 0 mm 3 mps 752 mmHg 51%
    22:00 +17°C° 0 mm 3 mps 752 mmHg 54%
    23:00 +17°C° 0 mm 3 mps 752 mmHg 57%

    Tomorrow, 19 September, Wednesday

    Time Temperature Precipitation Wind Pressure Humidity
    00:00 +16°C° 0 mm 3 mps 752 mmHg 60%
    01:00 +16°C° 0 mm 3 mps 753 mmHg 63%
    02:00 +16°C° 0 mm 3 mps 753 mmHg 66%
    03:00 +14°C° 0 mm 3 mps 753 mmHg 69%
    04:00 +14°C° 0 mm 3 mps 753 mmHg 73%
    05:00 +13°C° 0 mm 3 mps 753 mmHg 76%
    06:00 +14°C° 0 mm 2 mps 753 mmHg 79%
    07:00 +16°C° 0 mm 3 mps 753 mmHg 73%
    08:00 +17°C° 0 mm 3 mps 753 mmHg 67%
    09:00 +19°C° 0 mm 3 mps 754 mmHg 62%
    10:00 +21°C° 0 mm 3 mps 754 mmHg 55%
    11:00 +22°C° 0 mm 4 mps 753 mmHg 49%
    12:00 +25°C° 0 mm 4 mps 753 mmHg 42%
    13:00 +25°C° 0 mm 4 mps 753 mmHg 40%
    14:00 +26°C° 0 mm 4 mps 753 mmHg 38%
    15:00 +27°C° 0 mm 4 mps 753 mmHg 37%
    16:00 +26°C° 0 mm 4 mps 753 mmHg 39%
    17:00 +25°C° 0 mm 3 mps 753 mmHg 42%
    18:00 +24°C° 0 mm 2 mps 753 mmHg 45%
    19:00 +23°C° 0 mm 2 mps 753 mmHg 48%
    20:00 +21°C° 0 mm 2 mps 753 mmHg 52%
    21:00 +20°C° 0 mm 1 mps 754 mmHg 55%
    22:00 +20°C° 0 mm 1 mps 753 mmHg 57%
    23:00 +19°C° 0 mm 1 mps 753 mmHg 59%

    Day after tomorrow, 20 September, Thursday

    Time Temperature Precipitation Wind Pressure Humidity
    00:00 +19°C° 0 mm 1 mps 753 mmHg 61%
    01:00 +19°C° 0 mm 1 mps 753 mmHg 62%
    02:00 +18°C° 0 mm 1 mps 753 mmHg 64%
    03:00 +18°C° 0 mm 1 mps 753 mmHg 65%
    04:00 +16°C° 0 mm 1 mps 753 mmHg 66%
    05:00 +16°C° 0 mm 1 mps 753 mmHg 68%
    06:00 +16°C° 0 mm 1 mps 753 mmHg 69%
    07:00 +19°C° 0 mm 1 mps 753 mmHg 63%
    08:00 +19°C° 0 mm 2 mps 753 mmHg 57%
    09:00 +21°C° 0 mm 2 mps 754 mmHg 51%
    10:00 +24°C° 0 mm 2 mps 753 mmHg 46%
    11:00 +25°C° 0 mm 3 mps 753 mmHg 40%
    12:00 +27°C° 0 mm 3 mps 753 mmHg 35%
    13:00 +28°C° 0 mm 3 mps 753 mmHg 33%
    14:00 +29°C° 0 mm 3 mps 752 mmHg 31%
    15:00 +29°C° 0 mm 4 mps 752 mmHg 29%
    16:00 +28°C° 0 mm 3 mps 752 mmHg 32%
    17:00 +27°C° 0 mm 3 mps 752 mmHg 35%
    18:00 +26°C° 0 mm 2 mps 752 mmHg 38%
    19:00 +25°C° 0 mm 2 mps 752 mmHg 42%
    20:00 +23°C° 0 mm 2 mps 752 mmHg 45%
    21:00 +21°C° 0 mm 2 mps 752 mmHg 49%
    22:00 +22°C° 0 mm 1 mps 752 mmHg 52%
    23:00 +21°C° 0 mm 1 mps 752 mmHg 54%

    21 September, Friday

    Time Temperature Precipitation Wind Pressure Humidity
    00:00 +20°C° 0 mm 1 mps 752 mmHg 57%
    01:00 +20°C° 0 mm 1 mps 752 mmHg 60%
    02:00 +19°C° 0 mm 1 mps 752 mmHg 63%
    03:00 +19°C° 0 mm 1 mps 752 mmHg 66%
    04:00 +19°C° 0 mm 1 mps 752 mmHg 69%
    05:00 +18°C° 0 mm 1 mps 752 mmHg 72%
    06:00 +18°C° 0 mm 1 mps 752 mmHg 75%
    07:00 +20°C° 0 mm 1 mps 752 mmHg 70%
    08:00 +20°C° 0 mm 2 mps 752 mmHg 65%
    09:00 +23°C° 0 mm 2 mps 752 mmHg 61%
    10:00 +24°C° 0 mm 2 mps 752 mmHg 55%
    11:00 +26°C° 0 mm 2 mps 752 mmHg 50%
    12:00 +27°C° 0 mm 2 mps 752 mmHg 44%
    13:00 +28°C° 0 mm 2 mps 752 mmHg 41%
    14:00 +29°C° 0 mm 2 mps 752 mmHg 38%
    15:00 +29°C° 0 mm 2 mps 752 mmHg 35%
    16:00 +28°C° 0 mm 2 mps 751 mmHg 36%
    17:00 +28°C° 0 mm 2 mps 751 mmHg 38%
    18:00 +27°C° 0 mm 2 mps 751 mmHg 40%
    19:00 +25°C° 0 mm 2 mps 751 mmHg 42%
    20:00 +24°C° 0 mm 2 mps 751 mmHg 44%
    21:00 +23°C° 0 mm 2 mps 752 mmHg 46%
    22:00 +21°C° 0 mm 2 mps 752 mmHg 47%
    23:00 +20°C° 0 mm 3 mps 752 mmHg 48%

    22 September, Saturday

    Time Temperature Precipitation Wind Pressure Humidity
    00:00 +20°C° 0 mm 3 mps 752 mmHg 48%
    01:00 +19°C° 0 mm 3 mps 752 mmHg 50%
    02:00 +18°C° 0 mm 2 mps 752 mmHg 51%
    03:00 +18°C° 0 mm 2 mps 752 mmHg 53%
    04:00 +18°C° 0 mm 2 mps 752 mmHg 55%
    05:00 +17°C° 0 mm 2 mps 752 mmHg 57%
    06:00 +17°C° 0 mm 2 mps 752 mmHg 60%
    07:00 +18°C° 0 mm 3 mps 752 mmHg 56%
    08:00 +20°C° 0 mm 3 mps 752 mmHg 52%
    09:00 +21°C° 0 mm 3 mps 752 mmHg 49%
    10:00 +24°C° 0 mm 3 mps 752 mmHg 44%
    11:00 +25°C° 0 mm 3 mps 751 mmHg 39%
    12:00 +27°C° 0 mm 3 mps 751 mmHg 34%
    13:00 +27°C° 0 mm 3 mps 751 mmHg 32%
    14:00 +28°C° 0 mm 3 mps 750 mmHg 30%
    15:00 +29°C° 0 mm 3 mps 750 mmHg 27%
    16:00 +28°C° 0 mm 3 mps 750 mmHg 30%
    17:00 +27°C° 0 mm 2 mps 749 mmHg 32%
    18:00 +26°C° 0 mm 2 mps 749 mmHg 34%
    19:00 +24°C° 0 mm 3 mps 749 mmHg 37%
    20:00 +22°C° 0 mm 3 mps 749 mmHg 39%
    21:00 +21°C° 0 mm 3 mps 749 mmHg 42%
    22:00 +20°C° 0 mm 3 mps 749 mmHg 45%
    23:00 +20°C° 0 mm 3 mps 749 mmHg 48%

    23 September, Sunday

    Time Temperature Precipitation Wind Pressure Humidity
    00:00 +19°C° 0 mm 3 mps 749 mmHg 50%
    01:00 +19°C° 0 mm 3 mps 749 mmHg 53%
    02:00 +18°C° 0 mm 3 mps 748 mmHg 55%
    03:00 +18°C° 0 mm 3 mps 748 mmHg 58%
    04:00 +18°C° 0 mm 3 mps 748 mmHg 59%
    05:00 +17°C° 0 mm 3 mps 748 mmHg 60%
    06:00 +17°C° 0 mm 3 mps 748 mmHg 62%
    07:00 +19°C° 0 mm 4 mps 748 mmHg 57%
    08:00 +20°C° 0 mm 4 mps 748 mmHg 52%
    09:00 +22°C° 0 mm 5 mps 747 mmHg 47%
    10:00 +25°C° 0 mm 5 mps 747 mmHg 43%
    11:00 +26°C° 0 mm 5 mps 747 mmHg 39%
    12:00 +28°C° 0 mm 6 mps 746 mmHg 35%
    13:00 +28°C° 0 mm 6 mps 746 mmHg 34%
    14:00 +29°C° 0 mm 6 mps 745 mmHg 33%
    15:00 +29°C° 0 mm 6 mps 745 mmHg 32%
    16:00 +28°C° 0 mm 5 mps 745 mmHg 34%
    17:00 +27°C° 0 mm 4 mps 744 mmHg 37%
    18:00 +26°C° 0 mm 4 mps 744 mmHg 39%
    19:00 +25°C° 0 mm 4 mps 744 mmHg 43%
    20:00 +23°C° 0 mm 4 mps 744 mmHg 46%
    21:00 +21°C° 0 mm 4 mps 744 mmHg 50%
    22:00 +21°C° 0.2 mm 4 mps 744 mmHg 54%
    23:00 +20°C° 0.2 mm 4 mps 744 mmHg 58%
    Show more